Regional Weather Roundup
Issued by NWS

Home | Current Version | Previous Version | Graphics & Text | Print | Product List | Glossary On
Versions: 1 2 3 4 5 6 7 8 9 10 11 12 13 14 15 16 17 18 19 20 21 22 23 24 25 26 27 28 29 30 31 32 33 34 35 36 37 38 39 40 41 42 43 44 45 46 47 48 49 50
793
ASUS45 KCYS 212310
RWRWY

WYOMING REGIONAL WEATHER ROUNDUP
NATIONAL WEATHER SERVICE CHEYENNE WY
500 PM MDT SAT OCT 21 2017

NOTE:  "FAIR" INDICATES FEW OR NO CLOUDS BELOW 12,000 FEET
WITH NO SIGNIFICANT WEATHER AND/OR OBSTRUCTIONS TO VISIBILITY.

WYZ001-220000-
YELLOWSTONE NATIONAL PARK

CITY           SKY/WX    TMP DP  RH WIND       PRES   REMARKS
LK YELLOWSTONE   N/A     27  18  69 VRB7G20   30.13R WCI  19
W YELLOWSTONE  NOT AVBL

$$
WYZ002>013-054>058-071-098>099-220000-
NORTHERN WYOMING

CITY           SKY/WX    TMP DP  RH WIND       PRES   REMARKS
JACKSON        CLOUDY    34  19  54 SW13      30.16R WCI  25
CODY           FAIR      44  15  31 W25G38    29.99S
GREYBULL       FAIR      53  12  19 W18G29    29.96R
WORLAND        FAIR      54  11  18 CALM      29.96R
SHERIDAN       FAIR      53  13  20 W17G26    29.92R
BUFFALO        FAIR      50   8  18 N7        29.95R
GILLETTE       PTSUNNY   52  11  19 NW14      29.93R
HULETT         FAIR      50  18  27 W7G17     29.92R
NEWCASTLE      FAIR      50  10  20 NW17G25   29.94R

$$
WYZ014>020-022>026-101>103-220000-
CENTRAL WYOMING

CITY           SKY/WX    TMP DP  RH WIND       PRES   REMARKS
BIG PINEY      FAIR      38  12  34 N7        30.15R WCI  33
PINEDALE       FAIR      36  12  38 NW17      30.16S WCI  25
DUBOIS         FAIR      34  12  40 NW24G33   30.06R WCI  21
LANDER         FAIR      49   6  17 N9        30.01R
RIVERTON       FAIR      43  11  27 NW23      30.03R
CASPER         FAIR      49   6  17 W15       29.98S
DOUGLAS        PTSUNNY   51   6  16 NW17G30   29.97S

$$
WYZ021-027>030-104>119-220000-
SOUTHERN WYOMING

CITY           SKY/WX    TMP DP  RH WIND       PRES   REMARKS
EVANSTON       FAIR      41  15  35 SW17G23   30.22R
KEMMERER       FAIR      36  14  41 W24G32    30.18R WCI  24
FORT BRIDGER   FAIR      42  12  29 W22G29    30.22R
ROCK SPRINGS   FAIR      41   9  26 W23       30.15R
DIXON          FAIR      42  17  36 W9G20     30.18S
RAWLINS        FAIR      40  10  29 W26G36    30.09S WCI  29
SARATOGA       FAIR      37  19  48 W17G31    30.13R WCI  28
LARAMIE        PTSUNNY   37  14  38 W21       30.08R WCI  26
CHEYENNE       FAIR      44  11  26 W24G36    30.06R
TORRINGTON     NOT AVBL
PINE BLUFFS    FAIR      50   9  18 MISG      30.05R

$$




USA.gov is the U.S. government's official web portal to all federal, state and local government web resources and services.